Regional Weather Roundup
Issued by NWS

Home | Current Version | Previous Version | Graphics & Text | Print | Product List | Glossary On
Versions: 1 2 3 4 5 6 7 8 9 10 11 12 13 14 15 16 17 18 19 20 21 22 23 24 25 26 27 28 29 30 31 32 33 34 35 36 37 38 39 40 41 42 43 44 45 46 47 48 49 50
000
ASUS43 KMKX 220910
RWRWI

WISCONSIN REGIONAL WEATHER ROUNDUP
NATIONAL WEATHER SERVICE MILWAUKEE/SULLIVAN WI
300 AM CST MON JAN 22 2018

NOTE: "FAIR" INDICATES FEW OR NO CLOUDS BELOW 12,000 FEET WITH NO
SIGNIFICANT WEATHER AND/OR OBSTRUCTIONS TO VISIBILITY.

WIZ001-002-006>008-014>016-023>028-221000-
NORTHWEST WISCONSIN

CITY           SKY/WX    TMP DP  RH WIND       PRES   REMARKS
SUPERIOR ARPT  CLOUDY    29  28  98 NE16G23   30.06F WCI  17
ASHLAND        LGT SNOW  29  28  96 NE16      30.05S FOG     WCI  17
HAYWARD        CLOUDY    31  26  82 NE14G21   29.97F WCI  21
SIREN          CLOUDY    31  28  88 NE10G16   29.97R WCI  22
CUMBERLAND     CLOUDY    32  28  86 NE13      29.91F WCI  22
RICE LAKE      CLOUDY    32  30  93 N15       29.92F WCI  22
CHETEK         CLOUDY    34  30  86 NE7       29.90F WCI  28
LADYSMITH      CLOUDY    33  30  89 NE10      29.93F WCI  25
EAU CLAIRE     CLOUDY    35  30  82 NE10      29.86F WCI  27
MENOMONIE      MOCLDY    36  31  83 N10       29.88F WCI  28
NEW RICHMOND   CLOUDY    32  28  84 NE16      29.88F WCI  21
OSCEOLA        CLOUDY    32  29  88 NE12      29.94F WCI  23
$$

WIZ003>005-009-010-017-018-221000-
NORTH CENTRAL WISCONSIN

CITY           SKY/WX    TMP DP  RH WIND       PRES   REMARKS
MANITOWISH WTR CLOUDY    29  29 100 NE13      29.95F WCI  18
ARBOR VITAE    CLOUDY    32  30  94 NE8       29.93F WCI  25
WOODRUFF       CLOUDY    32  30  94 NE8       29.93F WCI  25
RHINELANDER    CLOUDY    32  30  92 NE8       29.93S WCI  25
EAGLE RIVER    CLOUDY    31  31  99 NE14      29.94F WCI  21
LAND O LAKES   FOG       30  30 100 NE6       29.97F VSB 1   WCI  24
PHILLIPS       CLOUDY    31  31  99 NE12G17   29.92F WCI  22
TOMAHAWK       CLOUDY    32  29  88 NE3       29.92F
MEDFORD        CLOUDY    33  30  88 NE10      29.87F WCI  25
MERRILL        CLOUDY    34  31  88 E9        29.91F WCI  27
$$

WIZ029-030-035-036-043>047-221000-
CENTRAL WISCONSIN

CITY           SKY/WX    TMP DP  RH WIND       PRES   REMARKS
WAUSAU         CLOUDY    34  30  85 E12       29.87F WCI  25
MOSINEE        CLOUDY    34  32  93 NE13      29.88F WCI  25
MARSHFIELD     CLOUDY    35  31  85 NE16G23   29.83F WCI  25
STEVENS POINT  DRIZZLE   32  32  99 NE13      29.86F WCI  22
WAUPACA        CLOUDY    36  33  91 NE12      29.88F FOG     WCI  27
WAUTOMA        CLOUDY    34  33  96 NE14      29.84F FOG     WCI  25
WISC RAPIDS    CLOUDY    35  31  85 E12       29.86F WCI  27
CAMP DOUGLAS   CLOUDY    35  35  99 NE9       29.81F FOG     WCI  28
$$

WIZ011>013-019>022-031-037>040-048>050-221000-
NORTHEAST WISCONSIN

CITY           SKY/WX    TMP DP  RH WIND       PRES   REMARKS
ANTIGO         CLOUDY    32  31  96 E13       29.91S WCI  22
SHAWANO        CLOUDY    35  32  90 NE12      29.93S FOG     WCI  27
OCONTO         CLOUDY    33  32  96 NE8G18    29.94S WCI  26
STURGEON BAY   CLOUDY    34  33  96 NE12      29.94F FOG     WCI  25
GREEN BAY      FOG       33  32  96 NE21      29.92S VSB 1/2 WCI  21
MANITOWOC      MIX PCPN  36  35  96 NE12      29.89F FOG     WCI  28
APPLETON       LGT RAIN  32  32 100 NE16G23   29.85F WCI  21
CLINTONVILLE   LGT SNOW  34  32  93 NE12      29.91S WCI  25
OSHKOSH        LGT RAIN  33  33 100 NE17G25   29.85F VSB 1   WCI  22
$$

WIZ032>034-041-042-053>061-221000-
SOUTHWEST WISCONSIN

CITY           SKY/WX    TMP DP  RH WIND       PRES   REMARKS
LA CROSSE      CLOUDY    39  35  86 NE14G24   29.78F FOG     WCI  31
SPARTA         CLOUDY    35  34  98 E17       29.80F FOG     WCI  24
VIROQUA        CLOUDY    36  36 100 E20       29.74F WCI  25
BOSCOBEL       LGT RAIN  38  35  89 NE10G17   29.74F WCI  31
PRAIRIE DU CHI RAIN      38  36  90 E7        29.70F WCI  33
PLATTEVILLE    CLOUDY    37  37 100 NE16G22   29.69F WCI  28
$$

WIZ056-057-062-063-064-067-068-221000-
SOUTH CENTRAL WISCONSIN

CITY           SKY/WX    TMP DP  RH WIND       PRES   REMARKS
REEDSBURG      DRIZZLE   35  35 100 NE10      29.78F WCI  27
BARABOO/DELLS  RAIN      35  34  98 NE12      29.78F WCI  27
LONE ROCK      LGT RAIN  38  36  92 E15G24    29.76F FOG     WCI  29
MINERAL POINT  RAIN      37  37 100 E12G24    29.71F WCI  30
MADISON        RAIN      36  35  96 NE12G20   29.77F FOG     WCI  28
MIDDLETON      CLOUDY    37  37 100 E12       29.76F WCI  29
WATERTOWN      LGT SNOW  36  36 100 NE7       29.78F WCI  30
MONROE         CLOUDY    36  36 100 NE13      29.71F FOG     WCI  27
JANESVILLE     CLOUDY    37  37 100 NE12      29.72F FOG     WCI  30
$$

WIZ051-052-058>065-066-070>072-221000-
SOUTHEAST WISCONSIN

CITY           SKY/WX    TMP DP  RH WIND       PRES   REMARKS
MILWAUKEE      DRZL/FOG  37  37 100 NE12      29.80F VSB 1/2 WCI  29
WAUKESHA       CLOUDY    34  34 100 NE12G17   29.80F FOG     WCI  25
MILWAUKEE/TIMM DRIZZLE   36  34  93 NE7       29.81F WCI  30
RACINE         FOG       37  37 100 NE7       29.80F VSB 1/4 WCI  32
BURLINGTON     FOG       37  37  97 NE6       29.77F VSB 1   WCI  33
KENOSHA        FOG       38  37  97 NE8       29.77F VSB 1/4 WCI  32
FOND DU LAC    RAIN      36  33  89 NE13      29.84F FOG     WCI  27
SHEBOYGAN      LGT RAIN  36  36 100 NE16      29.84F FOG     WCI  26
WEST BEND      RAIN      36  36 100 NE10      29.82F WCI  28
JUNEAU         LGT RAIN  35  35  99 NE9       29.81F WCI  28
$$

LSZ147-162-221000-
LAKE SUPERIOR

STATION/POSITION TIME  TEMP    WIND        PRES    WAVE
                       AIR SEA DIR/SP/G            HT/PER
                 (UTC) (F)     (DEG/KT/KT) (MB)    (FT/S)
DEVILS ISLAND    0900   26      50/ 17/ 19 1019.7R
SAXON HARBOR     0830   31      50/ 16/ 18 1017.3R
$$

LMZ867-665-643>646-221000-
LAKE MICHIGAN

STATION/POSITION TIME  TEMP    WIND        PRES    WAVE
                       AIR SEA DIR/SP/G            HT/PER
                 (UTC) (F)     (DEG/KT/KT) (MB)    (FT/S)
NORTHPORT PIER   0903   33      40/  1/  8 1014.9
KEWAUNEE LAKESHO 0848   35      40/ 11/ 17 1012.2F
SHEBOYGAN LAKESH 0900   37      40/ 17/ 18 1011.2F
PORT WASHINGTON  0840   36      40/ 13/ 15 1011.2F
MILWAUKEE LAKESH 0850   36      30/ 12/ 14   N/A
KENOSHA   LAKESH 0900   36      20/  5/  6 1008.5
$$

TC  - TEMPERATURE IN CELSIUS
VSB - VISIBILITY IN STATUTE MILES
WCI - WIND CHILL INDEX
HX  - HEAT INDEX





USA.gov is the U.S. government's official web portal to all federal, state and local government web resources and services.